Home > Weather > Kobe > Past weeks

Flag for Japan Weather for the Past 2 Weeks in Kobe, Japan

Now
57 °F

Rain showers. Fog.


Feels Like: 55 °F
Forecast: 46 / 61 °F
Wind: 8 mph from East

Location: Osaka International Airport

Current Time: Feb 13, 2016 at 4:55:53 PM

Latest Report: Feb 13, 2016 at 4:00 PM


Visibility: 3 mi

Pressure: 29.95 "Hg

Humidity: 94%

Dew point: 55 °F

Location of KobeLocation

Historic Weather in Kobe — Graph

°F

Kobe Temperature Yesterday

Maximum temperature yesterday: 61 °F (at 2:00 PM)
Minimum temperature yesterday: 36 °F (at 5:00 AM)
Average temperature yesterday: 51 °F

High & Low Weather Summary for the Past Weeks

 TemperatureHumidityPressure
High63 °F (Feb 13, 12:00 PM)100% (Jan 29, 4:00 PM)30.45 "Hg (Jan 29, 4:00 PM)
Low28 °F (Feb 4, 6:00 AM)20% (Feb 8, 2:00 PM)29.89 "Hg (Feb 9, 7:00 AM)
Average45 °F55%30.14 "Hg
* Reported Jan 29 3:00 PM — Feb 13 3:00 PM, Kobe, Weather by CustomWeather, © 2016

Note: Actual official high and low records may vary slightly from our data, if they occured in-between our weather recording intervals... More about our weather records

Advertising

Kobe Weather History for the Previous 24 Hours

 ConditionsComfort  
Time TempWeatherWind HumidityBarometerVisibility
3:00 PM
Sat, Feb 13
59 °FRain showers. Broken clouds.6 mph82%29.98 "Hg4 mi
2:00 PM63 °FSprinkles. Broken clouds.6 mph59%29.98 "HgN/A
1:00 PM63 °FBroken clouds.7 mph56%30.01 "HgN/A
12:00 PM63 °FScattered showers. Broken clouds.7 mph56%30.04 "HgN/A
11:00 AM59 °FPartly sunny.9 mph59%30.09 "HgN/A
10:00 AM57 °FPartly sunny.8 mph67%30.09 "HgN/A
9:00 AM57 °FPartly sunny.8 mph63%30.12 "HgN/A
8:00 AM54 °FPartly sunny.8 mph77%30.12 "HgN/A
7:00 AM52 °FBroken clouds.7 mph82%30.15 "HgN/A
6:00 AM52 °FSprinkles. Partly cloudy.3 mph82%30.15 "HgN/A
5:00 AM54 °FSprinkles. Partly cloudy.3 mph72%30.15 "HgN/A
8:00 PM
Fri, Feb 12
54 °FPartly cloudy.12 mph67%30.24 "HgN/A
7:00 PM54 °FPassing clouds.9 mph67%30.27 "HgN/A
6:00 PM55 °FPartly cloudy.9 mph63%30.27 "HgN/A
5:00 PM57 °FPartly sunny.14 mph55%30.27 "HgN/A
4:00 PM59 °FBroken clouds.12 mph51%30.27 "HgN/A
Weather by CustomWeather, © 2016

See weather overviewHow to use our weather pages